Regional Weather Roundup
Issued by NWS Lake Charles, LA

Current Version | Previous Version | Text Only | Print | Product List | Glossary On
Versions: 1 2 3 4 5 6 7 8 9 10 11 12 13 14 15 16 17 18 19 20 21 22 23 24 25 26 27 28 29 30 31 32 33 34 35 36 37 38 39 40 41 42 43 44 45 46 47 48 49 50
000
ASUS44 KLCH 301410
RWRLCH
RWRLCH
REGIONAL WEATHER ROUNDUP
NATIONAL WEATHER SERVICE LAKE CHARLES LA
900 AM CDT TUE SEP 30 2014

Note: "fair" indicates few or no clouds below 12,000 feet with no
significant weather and/or obstructions to visibility.


ACROSS SOUTHEAST TEXAS

CITY           SKY/WX    TMP DP  RH WIND       PRES   REMARKS
BEAUMONT       FOG       77  74  90 E3        29.88S VSB 1
BEAUMONT CITY    N/A     76  73  92 CALM      29.89S
ORANGE         PTSUNNY  N/A N/A N/A E3        29.90F HAZE
JASPER         CLOUDY    72  70  92 E3        29.93S
$$

ACROSS CENTRAL LOUISIANA

CITY           SKY/WX    TMP DP  RH WIND       PRES   REMARKS
LEESVILLE      MOSUNNY   76  72  86 E3        29.91S
FULLERTON        N/A     78  71  79 VRB3      29.89S
ALEXANDRIA INT MOSUNNY   77  70  79 E3        29.90S
ESLER FIELD    PTSUNNY   75  71  87 CALM      29.92S
DERIDDER       CLOUDY    76  72  88 E3        29.93S
OAKDALE        SUNNY     75  72  91 CALM      29.91S
OPELOUSAS        N/A     75  72  91 CALM      29.91S
$$

ACROSS SOUTHWEST AND SOUTH CENTRAL LOUISIANA

CITY           SKY/WX    TMP DP  RH WIND       PRES   REMARKS
SULPHUR        SUNNY     79  76  91 E6        29.90F
LAKE CHARLES   SUNNY     77  74  90 E6        29.89S
CHENNAULT INT  NOT AVBL
CAMERON PHI    MOSUNNY   77  77 100 E6        29.92S
DEQUINCY       CLOUDY    75  72  90 CALM      29.90S
JENNINGS         N/A     76  73  92 E5        29.90S
LAFAYETTE      SUNNY     78  73  84 CALM      29.91R
NEW IBERIA     SUNNY     80  73  79 NE3       29.91R
ABBEVILLE        N/A     75  74  94 NE3       29.91S
PATTERSON      SUNNY     79  73  83 NE3       29.93R
SALT POINT       N/A     79  76  90 CALM      29.89S
$$

SELECTED SITES ACROSS THE REGION

CITY           SKY/WX    TMP DP  RH WIND       PRES   REMARKS
HOUSTON BUSH   MOSUNNY   76  73  91 NE5       29.88S
HOUSTON HOBBY  MOSUNNY   79  74  84 NE6       29.87S
GALVESTON      MOSUNNY   79  76  90 NE7       29.88R FOG
COLLEGE STAT   CLOUDY    75  71  87 SE3       29.90S
CONROE         MOSUNNY   75  72  90 CALM      29.90S
HUNTSVILLE     PTSUNNY   75  71  87 CALM      29.90S
LUFKIN         MOSUNNY   77  71  82 E7        29.91R
SHREVEPORT     PTSUNNY   75  65  70 SE3       29.92R
MONROE         CLOUDY    72  64  76 CALM      29.94S
NATCHEZ MS     PTSUNNY   75  70  83 SE3       29.93S
BATON ROUGE    SUNNY     77  71  82 CALM      29.91R
N.O. INTL ARPT MOSUNNY   80  72  76 NE8       29.90R
SLIDELL        SUNNY     77  71  82 E5        29.90S
$$

MARINE REPORTS

STATION/POSITION TIME  TEMP    WIND        PRES    VSBY  WAVE
                       AIR SEA DIR/SP/G                  HT/PER
                 (UTC) (F)     (DEG/KT/KT) (MB)    (MI)  (FT/S)
BUOY 30 S HIGH I 1400   80 81  110/  6/  6 1011.3R         1/ 6
SEA RIM ST PARK  1400   78      60/  5/  6 1012.4S
PORT ARTHUR      1400      80   90/  4/  5 1012.0S
SABINE PASS N    1400   78 79   50/  5/  6 1012.0S
TEXAS POINT      1400   78 79   50/  6/  7 1012.1S
CALCASIEU PASS   1400   77 79   90/  5/  7   N/A
LK CHARLES BEACH 1400   77 81              1012.4S
MARSH ISLAND     NOT AVBL
FRESH WATER LOCK 1400   78 81   40/  5/  8 1012.4R
AMERADA PASS     1400   77 78   70/  3/  5 1012.3R
$$



USA.gov is the U.S. government's official web portal to all federal, state and local government web resources and services.